Regional Weather Roundup
Issued by NWS

Home | Current Version | Previous Version | Text Only | Print | Product List | Glossary On
Versions: 1 2 3 4 5 6 7 8 9 10 11 12 13 14 15 16 17 18 19 20 21 22 23 24 25 26 27 28 29 30 31 32 33 34 35 36 37 38 39 40 41 42 43 44 45 46 47 48 49 50
000
ASUS43 KDTX 260110
RWRMI
MICHIGAN HOURLY REGIONAL WEATHER ROUNDUP
NATIONAL WEATHER SERVICE DETROIT/PONTIAC MI
900 PM EDT MON JUL 25 2016

NOTE: "FAIR" INDICATES FEW OR NO CLOUDS BELOW 12,000 FEET WITH NO
SIGNIFICANT WEATHER AND/OR OBSTRUCTION TO VISIBILITY.

MIZ047>049-052>055-059>063-066>070-074>076-081>083-260200-
SOUTHEAST LOWER MICHIGAN

CITY           SKY/WX    TMP DP  RH WIND       PRES   REMARKS
ADRIAN         CLEAR     79  66  64 NW5       29.97R
ALMA           CLEAR     77  61  57 NW5       29.97R
ANN ARBOR      CLEAR     81  64  56 W6        29.96R
BAD AXE        CLEAR     74  62  66 NE5       29.94R
CARO           PTCLDY    78  61  56 W5        29.94R
DETROIT CITY   CLEAR     84  62  47 NW7       29.93R
DETROIT        PTCLDY    83  62  49 NW7       29.95R
FLINT          CLEAR     82  60  47 NW7       29.95R
GROSSE ILE     CLEAR     83  63  49 NW5       29.93R
HILLSDALE      CLEAR     75  65  69 W6        29.99R
HOWELL         CLEAR     78  59  53 NW6       29.97R

CITY           SKY/WX    TMP DP  RH WIND       PRES   REMARKS
JACKSON        CLEAR     78  64  61 W6        29.98R
LAMBERTVILLE   CLEAR     81  68  65 SW5       29.96R
LANSING        CLEAR     76  58  53 NW7       29.98R
LAPEER         FAIR      80  58  48 NW6       29.95R
MASON          CLEAR     79  62  55 W3        29.98R
MONROE         CLEAR     77  71  81 CALM      29.94R
MT. CLEMENS    PTCLDY    83  64  52 W8        29.92R
PONTIAC        PTCLDY    81  62  52 W8        29.95R
PORT HURON     CLEAR     73  64  73 CALM      29.93R
TRI CITIES     CLEAR     78  61  55 W10       29.96R
MIDLAND        FAIR      77  61  57 W3        29.95R
TROY           CLEAR     85  58  40 W5        29.96R
SAGINAW HB     CLEAR     81  57  44 W10       29.94R
$$
MIZ043>046-050>051-056>058-064>065-071>073-077>080-260200-
SOUTHWEST LOWER MICHIGAN

CITY           SKY/WX    TMP DP  RH WIND       PRES   REMARKS
BATTLE CREEK   CLEAR     73  62  68 W8        30.01R
BENTON HARBOR  CLEAR     73  64  73 CALM      30.00R
BIG RAPIDS     CLEAR     75  62  62 CALM      29.98S
COLDWATER      CLEAR     75  64  67 W5        29.99S
FREMONT        FAIR      75  65  70 NW3       29.99R
HOLLAND        CLEAR     73  66  78 W6        30.01R
GRAND RAPIDS   PTCLDY    78  62  57 W9        29.99R
IONIA          FAIR      77  56  48 NW7       29.98R
KALAMAZOO      CLEAR     76  61  59 W7        30.01R
LUDINGTON      CLEAR     73  68  86 SW5       29.97S
MARSHALL       CLEAR     76  64  66 W6        29.99R
MOUNT PLEASANT CLEAR     78  59  52 W6        29.97R
MUSKEGON       PTCLDY    74  65  73 SW6       30.00R
SOUTH HAVEN    CLEAR     75  66  73 CALM      30.00R
$$
MIZ016>042-260200-
NORTHERN LOWER MICHIGAN

CITY           SKY/WX    TMP DP  RH WIND       PRES   REMARKS
ALPENA         CLEAR     74  55  51 NW9       29.95R
BEAVER ISLAND  CLEAR     71  60  68 CALM      29.96R
BELLAIRE       CLEAR     70  60  70 CALM      29.97S
CADILLAC       CLEAR     73  58  58 W3        29.99S
CHARLEVOIX     CLEAR     72  60  65 CALM      30.00S
FRANKFORT      CLEAR     74  64  71 CALM      29.96S
GAYLORD        CLEAR     71  57  61 NW7       30.00R
GRAYLING       CLEAR     73  60  61 NW6       29.99S
HARBOR SPRINGS CLEAR     71  57  62 CALM      29.96S
HOUGHTON LAKE  CLEAR     74  58  57 NW6       29.98S
MANISTEE       CLEAR     76  64  66 CALM      29.97R
OSCODA         CLEAR     76  58  53 W13       29.93R
ROGERS CITY    CLEAR     70  57  64 W6        29.96R
TRAVERSE CITY  CLEAR     76  63  64 NE6       29.95R
$$
MIZ007>008-015-260200-
EASTERN UPPER MICHIGAN

CITY           SKY/WX    TMP DP  RH WIND       PRES   REMARKS
MACKINAC ISLAN CLEAR     70  56  62 W8        29.94R
NEWBERRY       CLEAR     70  59  68 W5        29.94S
S. S. MARIE    CLEAR     69  58  67 NW6       29.92R
$$
MIZ004>006-011>014-085-260200-
CENTRAL UPPER MICHIGAN

CITY           SKY/WX    TMP DP  RH WIND       PRES   REMARKS
MANISTIQUE     CLEAR     70  59  68 NW3       29.95S
ESCANABA       MOCLDY    75  63  64 SE8       29.95R
MENOMINEE      CLEAR    N/A N/A N/A CALM      29.96R
SAWYER-GWINN   CLEAR     75  55  50 W6        29.99R
$$
MIZ001>003-009>011-084-260200-
WESTERN UPPER MICHIGAN

CITY           SKY/WX    TMP DP  RH WIND       PRES   REMARKS
IRON MOUNTAIN  CLEAR     77  56  48 NW5       29.97S
HOUGHTON       CLEAR     74  58  57 W13       29.94S
COPPER HARBOR    N/A     75  58  55 VRB6      29.90S
IRONWOOD       CLEAR     75  63  64 SW5       29.97R
$$

ABBREVIATIONS USED IN REMARKS
   TC - TEMPERATURE IN CELSIUS
  WCI - WIND CHILL INDEX
   HX - HEAT INDEX
  VSB - VISIBILITY





USA.gov is the U.S. government's official web portal to all federal, state and local government web resources and services.